DW6758 Weather Reports


time (UTC)temp
C
wind
direction
speed
KPH
gust
KPH
rain 1hr
cm
rain 24hr
cm
rain mn
cm
humidity
%
barometer
mb
20240614113051 -17 0.0 0.0 0.00 0.00 0.00 1014.3
20240614111606 -17 0.0 0.0 0.00 0.00 0.00 1014.2
20240614110039 -17 0.0 0.0 0.00 0.00 0.00 1014.3
20240614104532 -17 0.0 0.0 0.00 0.00 0.00 1014.1
20240614103031 -17 0.0 0.0 0.00 0.00 0.00 1013.8
20240614101524 -17 0.0 0.0 0.00 0.00 0.00 1013.9
20240614100030 -17 0.0 0.0 0.00 0.00 0.00 1013.7
20240614094516 20 306 0.0 0.0 0.00 0.00 0.00 32 1013.7
20240614093016 21 311 0.0 0.0 0.00 0.00 0.00 34 1013.6
20240614091513 21 311 0.0 0.0 0.00 0.00 0.00 36 1013.5
20240614090009 22 311 0.0 0.0 0.00 0.00 0.00 39 1013.3
20240614084507 22 311 0.0 0.0 0.00 0.00 0.00 43 1013.2
20240614083015 22 311 0.0 0.0 0.00 0.00 0.00 45 1013.3
20240614081500 23 310 0.0 0.0 0.00 0.00 0.00 45 1013.0
20240614080057 24 290 0.0 0.0 0.00 0.00 0.00 36 1013.2
20240614074557 24 146 0.0 0.0 0.00 0.00 0.00 35 1013.1
20240614073056 24 215 0.0 0.0 0.00 0.00 0.00 36 1013.1
20240614071556 24 150 0.0 0.0 0.00 0.00 0.00 37 1013.0
20240614070103 25 150 0.0 0.0 0.00 0.00 0.00 38 1013.1
20240614064554 25 139 0.0 3.2 0.00 0.00 0.00 40 1013.0
20240614063049 25 129 0.0 3.2 0.00 0.00 0.00 43 1013.0
20240614061549 25 211 0.0 3.2 0.00 0.00 0.00 44 1013.2
20240614060045 25 226 0.0 0.0 0.00 0.00 0.00 46 1013.2
20240614054543 25 167 0.0 0.0 0.00 0.00 0.00 48 1013.3
20240614053042 25 160 0.0 0.0 0.00 0.00 0.00 52 1013.4
20240614051544 25 148 0.0 0.0 0.00 0.00 0.00 53 1013.5
20240614050038 25 105 0.0 1.6 0.00 0.00 0.00 54 1013.7
20240614044541 25 127 0.0 0.0 0.00 0.00 0.00 55 1013.8
20240614043035 25 96 0.0 3.2 0.00 0.00 0.00 56 1014.0
20240614041539 25 13 0.0 0.0 0.00 0.00 0.00 57 1014.2
20240614040030 25 114 0.0 8.0 0.00 0.00 0.00 57 1014.4
20240614034530 25 105 0.0 6.4 0.00 0.00 0.00 58 1014.1
20240614033029 25 86 0.0 3.2 0.00 0.00 0.00 59 1014.2
20240614031532 25 184 0.0 6.4 0.00 0.00 0.00 59 1014.3
20240614030029 25 238 0.0 1.6 0.00 0.00 0.00 59 1014.3
20240614024527 25 196 0.0 3.2 0.00 0.00 0.00 59 1014.2
20240614023027 25 298 0.0 4.8 0.00 0.00 0.00 59 1014.4
20240614021527 25 213 0.0 0.0 0.00 0.00 0.00 60 1014.6
20240614020026 25 135 0.0 1.6 0.00 0.00 0.00 61 1014.5
20240614014534 25 210 0.0 4.8 0.00 0.00 0.00 61 1014.6
20240614013025 25 162 0.0 4.8 0.00 0.00 0.00 61 1014.8
20240614011524 26 129 0.0 6.4 0.00 0.00 0.00 61 1014.8
20240614010024 26 129 0.0 3.2 0.00 0.00 0.00 62 1015.1
20240614004538 26 258 0.0 0.0 0.00 0.00 0.00 61 1015.2
20240614003022 26 123 0.0 0.0 0.00 0.00 0.00 61 1015.3
20240614001523 26 309 0.0 6.4 0.00 0.00 0.00 61 1015.4
20240614000029 26 226 0.0 0.0 0.00 0.00 0.00 61 1015.4
20240613234521 26 108 0.0 6.4 0.00 0.00 0.00 61 1015.3
20240613233022 26 38 0.0 0.0 0.00 0.00 0.00 61 1015.2
20240613231520 26 116 0.0 6.4 0.00 0.00 0.00 62 1015.3
20240613230038 26 297 0.0 4.8 0.00 0.00 0.00 62 1015.1
20240613224518 26 94 0.0 8.0 0.00 0.00 0.00 62 1015.1
20240613223017 26 131 0.0 8.0 0.00 0.00 0.00 61 1014.8
20240613221517 27 270 0.0 8.0 0.00 0.00 0.00 61 1014.8
20240613220017 27 145 0.0 9.7 0.00 0.00 0.00 61 1014.8
20240613214515 27 109 0.0 9.7 0.00 0.00 0.00 61 1014.9
20240613213014 27 129 0.0 3.2 0.00 0.00 0.00 61 1015.0
20240613211514 27 91 0.0 11.3 0.00 0.00 0.00 60 1015.0
20240613210026 28 150 0.0 6.4 0.00 0.00 0.00 60 1015.1
20240613204512 27 135 0.0 6.4 0.00 0.00 0.00 60 1015.3
20240613203011 27 153 0.0 6.4 0.00 0.00 0.00 60 1015.3
20240613201510 28 162 0.0 12.9 0.00 0.00 0.00 60 1015.3
20240613200012 28 153 0.0 9.7 0.00 0.00 0.00 60 1015.4
20240613194509 28 307 0.0 20.9 0.00 0.00 0.00 59 1015.4
20240613193008 28 108 0.0 0.0 0.00 0.00 0.00 59 1015.5
20240613191511 29 138 0.0 6.4 0.00 0.00 0.00 58 1015.6
20240613190008 29 266 0.0 16.1 0.00 0.00 0.00 57 1015.6
20240613184506 30 56 1.6 9.7 0.00 0.00 0.00 56 1015.6
20240613183004 30 112 0.0 9.7 0.00 0.00 0.00 56 1015.8
20240613181504 30 191 0.0 14.5 0.00 0.00 0.00 56 1015.8
20240613180003 30 82 0.0 12.9 0.00 0.00 0.00 56 1016.0
20240613174606 30 150 0.0 11.3 0.00 0.00 0.00 56 1016.1
20240613173006 30 330 1.6 9.7 0.00 0.00 0.00 55 1016.1
20240613171502 31 88 1.6 11.3 0.00 0.00 0.00 53 1016.0
20240613170100 30 188 0.0 12.9 0.00 0.00 0.00 55 1015.9
20240613170000 30 33 0.0 12.9 0.00 0.00 0.00 55 1015.8
20240613164658 30 105 0.0 11.3 0.00 0.00 0.00 55 1016.0
20240613163059 30 115 0.0 14.5 0.00 0.00 0.00 56 1015.9
20240613161558 30 194 0.0 9.7 0.00 0.00 0.00 55 1016.2
20240613160056 30 302 0.0 11.3 0.00 0.00 0.00 56 1016.0
20240613154555 30 155 0.0 8.0 0.00 0.00 0.00 55 1016.0
20240613153122 30 358 0.0 6.4 0.00 0.00 0.00 55 1016.0
20240613151552 30 129 0.0 6.4 0.00 0.00 0.00 56 1016.0
20240613150051 29 203 0.0 12.9 0.00 0.00 0.00 54 1016.1
20240613144600 29 124 0.0 4.8 0.00 0.00 0.00 55 1016.1
20240613143058 28 103 1.6 9.7 0.00 0.00 0.00 56 1016.0
20240613141543 27 99 0.0 3.2 0.00 0.00 0.00 55 1015.9
20240613140039 26 165 0.0 6.4 0.00 0.00 0.00 54 1015.9
20240613134543 26 296 0.0 4.8 0.00 0.00 0.00 53 1016.0
20240613133046 26 106 0.0 6.4 0.00 0.00 0.00 52 1016.1
20240613131536 26 165 0.0 6.4 0.00 0.00 0.00 52 1016.0
20240613130036 26 196 0.0 3.2 0.00 0.00 0.00 52 1015.7
20240613124531 26 141 0.0 0.0 0.00 0.00 0.00 49 1015.6
20240613123032 26 296 0.0 0.0 0.00 0.00 0.00 50 1015.5
20240613121526 25 156 0.0 1.6 0.00 0.00 0.00 48 1015.3
20240613120034 -17 0.0 0.0 0.00 0.00 0.00 1015.1
20240613114526 -17 0.0 0.0 0.00 0.00 0.00 1015.0